This demonstration page uses our WeatherBlox Daily Observations layout. Learn more.

Left ArrowRight Arrow

Hourly Observations for January 30, 2017

Temp ( °F °C ) Dew Point ( °F °C ) Humidity (%) Winds ( mph kmh ) Pressure ( in mb ) Visibility ( mi km ) Precip ( " mm )
12:16 am 00:16 Cloudy 25 -4 18 -8 74 74 WNW 12 19 29.97 1015 10 16 N/A
12:35 am 00:35 Cloudy 25 -4 18 -8 74 74 WNW 12 19 29.97 1015 10 16 N/A
12:56 am 00:56 Cloudy 23 -5 18 -8 80 80 NW 12 19 29.97 1015 10 16 N/A
1:16 am 01:16 Cloudy 23 -5 16 -9 74 74 NW 12 19 29.97 1015 10 16 N/A
1:35 am 01:35 Cloudy 23 -5 16 -9 74 74 WNW 9 15 29.97 1015 10 16 N/A
1:56 am 01:56 Mostly Cloudy 23 -5 16 -9 74 74 WNW 9 15 29.97 1015 10 16 N/A
2:16 am 02:16 Partly Cloudy 21 -6 14 -10 74 74 WNW 9 15 29.97 1015 10 16 N/A
2:35 am 02:35 Clear 21 -6 14 -10 74 74 WNW 7 11 29.97 1015 10 16 N/A
2:56 am 02:56 Clear 19 -7 14 -10 79 79 WNW 7 11 30.00 1016 10 16 N/A
3:16 am 03:16 Clear 19 -7 14 -10 79 79 WNW 8 13 30.03 1017 10 16 N/A
3:35 am 03:35 Clear 19 -7 14 -10 79 79 WNW 9 15 30.03 1017 10 16 N/A
3:56 am 03:56 Clear 19 -7 12 -11 73 73 WNW 8 13 30.03 1017 10 16 N/A
4:16 am 04:16 Clear 18 -8 12 -11 79 79 W 8 13 30.03 1017 10 16 N/A
4:35 am 04:35 Clear 16 -9 10 -12 79 79 WNW 7 11 30.06 1018 10 16 N/A
4:56 am 04:56 Clear 16 -9 10 -12 79 79 WNW 7 11 30.06 1018 10 16 N/A
5:16 am 05:16 Clear 16 -9 10 -12 79 79 W 7 11 30.06 1018 10 16 N/A
5:35 am 05:35 Clear 14 -10 9 -13 79 79 W 6 9 30.06 1018 10 16 N/A
5:56 am 05:56 Clear 12 -11 9 -13 85 85 W 7 11 30.06 1018 10 16 N/A
6:16 am 06:16 Clear 12 -11 9 -13 85 85 W 8 13 30.06 1018 10 16 N/A
6:35 am 06:35 Clear 12 -11 9 -13 85 85 W 7 11 30.09 1019 10 16 N/A
6:56 am 06:56 Clear 12 -11 9 -13 85 85 W 7 11 30.09 1019 10 16 N/A
7:16 am 07:16 Clear 12 -11 7 -14 79 79 W 7 11 30.09 1019 10 16 N/A
7:35 am 07:35 Clear 12 -11 9 -13 85 85 WSW 6 9 30.09 1019 10 16 N/A
7:56 am 07:56 Sunny 12 -11 9 -13 85 85 WSW 6 9 30.09 1019 10 16 N/A
8:16 am 08:16 Sunny 12 -11 9 -13 85 85 WSW 6 9 30.09 1019 10 16 N/A
8:35 am 08:35 Sunny 14 -10 9 -13 79 79 WSW 6 9 30.09 1019 10 16 N/A
8:56 am 08:56 Sunny 18 -8 12 -11 79 79 W 6 9 30.09 1019 10 16 N/A
9:15 am 09:15 Sunny 19 -7 12 -11 73 73 W 6 9 30.09 1019 10 16 N/A
9:36 am 09:36 Sunny 21 -6 12 -11 68 68 W 6 9 30.12 1020 10 16 N/A
9:56 am 09:56 Sunny 23 -5 12 -11 63 63 W 9 15 30.09 1019 10 16 N/A
10:15 am 10:15 Sunny 23 -5 12 -11 63 63 W 9 15 30.09 1019 10 16 N/A
10:36 am 10:36 Sunny 25 -4 12 -11 59 59 W 8 13 30.09 1019 10 16 N/A
10:56 am 10:56 Sunny 25 -4 14 -10 63 63 W 12 19 30.09 1019 10 16 N/A
11:15 am 11:15 Sunny 27 -3 14 -10 59 59 WSW 8 13 30.09 1019 10 16 N/A
11:36 am 11:36 Sunny 27 -3 14 -10 59 59 WSW 12 19 30.12 1020 10 16 N/A
11:56 am 11:56 Sunny 27 -3 14 -10 59 59 WSW 14 22 30.09 1019 10 16 N/A
12:15 pm 12:15 Sunny 28 -2 14 -10 55 55 W 12 19 30.09 1019 10 16 N/A
12:36 pm 12:36 Sunny 28 -2 16 -9 59 59 SW 9 15 30.09 1019 10 16 N/A
12:56 pm 12:56 Sunny 28 -2 14 -10 55 55 W 9 15 30.06 1018 10 16 N/A
1:15 pm 13:15 Sunny 28 -2 16 -9 59 59 SW 10 17 30.06 1018 10 16 N/A
1:36 pm 13:36 Sunny 30 -1 16 -9 55 55 SW 13 20 30.06 1018 10 16 N/A
1:56 pm 13:56 Partly Cloudy 30 -1 16 -9 55 55 WSW 14 22 30.06 1018 10 16 N/A
2:15 pm 14:15 Partly Cloudy 32 undefined 18 -8 55 55 WSW 15 24 30.03 1017 10 16 N/A
2:36 pm 14:36 Partly Cloudy 32 undefined 16 -9 51 51 SW 15 24 30.03 1017 10 16 N/A
2:56 pm 14:56 Sunny 32 undefined 18 -8 55 55 SW 13 20 30.03 1017 10 16 N/A
3:16 pm 15:16 Partly Cloudy 30 -1 16 -9 55 55 SW 10 17 30.00 1016 10 16 N/A
3:36 pm 15:36 Partly Cloudy 32 undefined 16 -9 51 51 SW 15 24 29.97 1015 10 16 N/A
3:56 pm 15:56 Mostly Cloudy 30 -1 18 -8 59 59 S 10 17 29.97 1015 10 16 N/A
4:16 pm 16:16 Cloudy 30 -1 18 -8 59 59 SSW 12 19 30.00 1016 10 16 N/A
4:36 pm 16:36 Cloudy 32 undefined 18 -8 55 55 S 7 11 30.00 1016 10 16 N/A
4:56 pm 16:56 Cloudy 32 undefined 18 -8 55 55 SSW 8 13 30.00 1016 10 16 N/A
5:16 pm 17:16 Cloudy 32 undefined 18 -8 55 55 S 8 13 30.00 1016 10 16 N/A
5:36 pm 17:36 Partly Cloudy 32 undefined 19 -7 60 60 S 6 9 29.97 1015 10 16 N/A
5:55 pm 17:55 Mostly Cloudy 32 undefined 19 -7 60 60 SSE 8 13 29.97 1015 10 16 N/A
6:16 pm 18:16 Partly Cloudy 30 -1 19 -7 64 64 S 8 13 29.94 1014 10 16 N/A
6:36 pm 18:36 Clear 30 -1 19 -7 64 64 S 10 17 29.94 1014 10 16 N/A
6:55 pm 18:55 Clear 30 -1 21 -6 69 69 S 12 19 29.94 1014 10 16 N/A
7:16 pm 19:16 Partly Cloudy 30 -1 21 -6 69 69 S 12 19 29.91 1013 10 16 N/A
7:36 pm 19:36 Partly Cloudy 32 undefined 21 -6 64 64 S 10 17 29.88 1012 10 16 N/A
7:55 pm 19:55 Partly Cloudy 32 undefined 21 -6 64 64 S 15 24 29.85 1011 10 16 N/A
8:16 pm 20:16 Partly Cloudy 30 -1 21 -6 69 69 S 16 26 29.85 1011 10 16 N/A
8:36 pm 20:36 Clear 30 -1 21 -6 69 69 S 15 24 29.83 1010 10 16 N/A
8:56 pm 20:56 Clear 30 -1 19 -7 64 64 S 13 20 29.83 1010 10 16 N/A
9:16 pm 21:16 Clear 32 undefined 19 -7 60 60 S 12 19 29.83 1010 10 16 N/A
9:36 pm 21:36 Clear 32 undefined 19 -7 60 60 S 13 20 29.80 1009 10 16 N/A
9:56 pm 21:56 Clear 32 undefined 19 -7 60 60 S 12 19 29.80 1009 10 16 N/A
10:16 pm 22:16 Clear 32 undefined 19 -7 60 60 S 9 15 29.77 1008 10 16 N/A
10:35 pm 22:35 Clear 32 undefined 19 -7 60 60 S 9 15 29.77 1008 10 16 N/A
10:56 pm 22:56 Clear 32 undefined 19 -7 60 60 S 10 17 29.71 1006 10 16 N/A
11:15 pm 23:15 Clear 32 undefined 19 -7 60 60 S 9 15 29.71 1006 10 16 N/A
11:36 pm 23:36 Clear 30 -1 19 -7 64 64 S 10 17 29.71 1006 10 16 N/A
11:56 pm 23:56 Clear 32 undefined 21 -6 64 64 S 8 13 29.68 1005 10 16 N/A

Powered by AerisWeather